sat.trackr.live / text

‹ back to catalog

STARLINK-2040

NORAD 47656 · 2021-012AN

PAYLOAD ACTIVE UNKNOWN

§ Identity

Operator
Country
US
Launch date
2021-02-16
Launch site
AFETR
Launch vehicle
Mass (kg)
RCS (m²)

Purposes: comms

External: N2YO · Heavens-Above · Gunter

§ Orbital elements

Epoch: 2026-09-12T07:57:21.182688Z

Period
94.01 min
Inclination
53.1592°
Eccentricity
0.0001278
Mean motion
15.31704322 rev/d
Perigee alt
469.9 km
Apogee alt
471.6 km
Semi-major
6,848.9 km
B*
3.7480e-5
RAAN
260.9402°
Arg perigee
90.0772°
Mean anomaly
270.0376°
Rev number
30,889

§ Raw data

STARLINK-20401 47656U 21012AN  26255.33149517  .00000798  00000+0  37480-4 0  99962 47656  53.1592 260.9402 0001278  90.0772 270.0376 15.31704322308892

JSON: /api/v1/satellites/47656 · /tle

For live sub-satellite position, see the globe view (requires WebGL).

§ Visibility from observer

Set your observer location to see the next 7 days of passes ≥ 10°. The values pass through the URL so the page stays shareable.

No JS? Fill the form by hand. The geolocation button needs JavaScript.